Date,TemperatureHighF,TemperatureAvgF,TemperatureLowF,DewpointHighF,DewpointAvgF,DewpointLowF,HumidityHigh,HumidityAvg,HumidityLow,PressureMaxIn,PressureMinIn,WindSpeedMaxMPH,WindSpeedAvgMPH,GustSpeedMaxMPH,PrecipitationSumIn
2013-1-1,48,35,28,35,24,20,86,68,34,30.20,30.14,0,0,0,0.00
2013-1-2,53,35,25,33,22,17,86,64,31,30.20,30.08,0,0,0,0.00
2013-1-3,52,35,26,38,24,18,88,67,34,30.20,30.11,0,0,0,0.00
2013-1-4,54,37,28,37,24,17,86,63,31,30.23,30.14,0,0,0,0.00
2013-1-5,53,39,31,40,27,22,84,63,31,30.20,30.02,0,0,0,0.00
2013-1-6,49,40,32,40,33,27,86,77,59,30.11,30.02,0,0,0,0.04
2013-1-7,54,40,31,41,30,26,90,71,38,30.17,30.08,0,0,0,1.50
2013-1-8,55,42,34,45,33,29,88,73,42,30.17,30.08,0,0,0,0.00
2013-1-9,50,40,33,42,35,30,90,82,55,30.14,29.82,0,0,3,0.35
2013-1-10,43,33,27,36,27,20,97,80,42,30.05,29.93,0,0,0,0.04
2013-1-11,44,30,23,31,21,13,90,72,38,30.14,30.02,0,0,0,0.00
2013-1-12,42,29,20,23,17,11,82,63,38,30.14,30.05,0,0,0,0.00
2013-1-13,44,28,18,22,13,7,76,56,38,30.14,30.05,0,0,0,0.00
2013-1-14,49,32,21,22,12,4,65,45,34,30.29,30.11,0,0,0,0.00
2013-1-15,47,33,24,26,18,13,74,57,34,30.38,30.29,0,0,0,0.00
2013-1-16,54,35,28,38,22,13,84,62,31,30.35,30.23,0,0,0,0.00
2013-1-17,59,37,25,35,22,15,78,57,29,30.23,30.14,0,0,0,0.00
2013-1-18,62,40,28,30,22,15,71,52,27,30.20,30.11,0,0,0,0.00
2013-1-19,62,40,27,30,22,16,69,51,27,30.23,30.14,0,0,0,0.00
2013-1-20,62,40,28,30,22,16,69,52,27,30.20,30.08,0,0,0,0.00
2013-1-21,61,41,30,30,23,17,69,52,29,30.17,30.08,0,0,0,0.00
2013-1-22,64,42,28,30,24,18,67,51,27,30.14,30.02,0,0,0,0.00
2013-1-23,60,45,36,41,29,21,84,56,29,30.08,29.96,0,0,0,0.04
2013-1-24,56,50,46,51,45,40,90,83,76,30.14,30.05,0,0,0,0.04
2013-1-25,59,52,48,56,47,44,97,83,67,30.14,29.99,0,0,0,0.12
2013-1-26,54,48,40,51,40,30,94,77,55,29.99,29.88,0,0,0,0.04
2013-1-27,48,39,32,39,32,27,88,77,50,30.05,29.93,0,0,0,0.16
2013-1-28,52,38,29,35,26,18,88,67,34,30.20,30.05,0,0,0,0.00
2013-1-29,52,39,30,38,28,24,86,68,38,30.26,30.17,0,0,0,0.00
2013-1-30,58,43,33,45,31,26,88,68,36,30.26,30.20,0,0,0,0.00
2013-1-31,60,42,31,45,30,24,88,66,29,30.26,30.17,0,0,0,0.00
2013-2-1,65,45,32,39,29,22,84,59,27,30.20,30.11,0,0,0,0.00
2013-2-2,64,46,35,40,30,23,82,57,27,30.23,30.17,0,0,0,0.00
2013-2-3,62,44,32,38,28,24,84,59,27,30.17,30.08,0,0,0,0.00
2013-2-4,63,44,32,35,27,21,74,54,27,30.11,30.02,0,0,0,0.00
2013-2-5,57,43,32,40,30,25,84,64,36,30.08,29.96,0,0,0,0.00
2013-2-6,56,40,30,38,26,18,86,61,31,30.08,30.02,0,0,0,0.00
2013-2-7,44,40,36,39,32,25,84,73,48,30.08,29.91,0,0,0,0.16
2013-2-8,50,37,28,36,24,13,90,64,34,29.91,29.85,0,0,0,0.00
2013-2-9,53,36,24,27,20,13,82,56,31,30.02,29.91,0,0,0,0.00
2013-2-10,58,39,28,29,20,12,71,50,29,30.05,29.96,0,0,0,0.00
2013-2-11,59,39,26,27,19,12,67,48,29,30.17,30.05,0,0,0,0.00
2013-2-12,56,39,28,32,22,17,71,53,31,30.29,30.17,0,0,0,0.00
2013-2-13,59,41,28,38,26,20,84,58,29,30.26,30.17,0,0,0,0.00
2013-2-14,70,48,33,40,27,18,78,48,25,30.20,30.11,0,0,0,0.00
2013-2-15,67,47,32,32,25,17,65,45,25,30.23,30.20,0,0,0,0.00
2013-2-16,66,46,32,31,26,19,65,48,25,30.23,30.02,0,0,0,0.00
2013-2-17,62,44,32,36,26,18,78,53,27,30.02,29.93,0,0,0,0.00
2013-2-18,60,44,31,38,28,23,82,58,29,29.96,29.85,0,0,0,0.00
2013-2-19,42,36,31,32,28,23,90,73,48,29.85,29.67,0,0,4,0.12
2013-2-20,49,31,25,28,26,18,92,84,34,29.96,29.73,0,0,0,0.31
2013-2-21,55,39,28,37,25,17,88,63,31,30.08,29.96,5,0,7,0.00
2013-2-22,56,42,29,33,25,20,84,56,29,30.17,30.08,4,0,5,0.00
2013-2-23,54,44,30,33,23,11,67,45,31,30.14,30.05,7,0,7,0.00
2013-2-24,61,41,26,29,19,12,67,43,29,30.17,30.08,4,0,4,0.00
2013-2-25,58,42,30,29,20,14,67,43,29,30.23,30.11,7,0,7,0.00
2013-2-26,64,43,28,30,22,12,69,46,27,30.17,30.08,3,0,9,0.00
2013-2-27,64,44,29,30,19,9,44,36,27,30.32,30.17,0,0,5,0.00
2013-2-28,62,43,40,29,23,20,61,45,27,30.38,30.29,5,0,6,0.00
2013-3-1,70,50,35,42,30,24,78,50,25,30.38,30.23,4,0,5,0.00
2013-3-2,69,53,40,41,32,25,80,50,25,30.26,30.05,4,0,5,0.00
2013-3-3,58,52,44,47,36,26,78,56,29,30.05,29.99,0,0,0,0.00
2013-3-4,64,48,35,42,30,26,82,56,27,30.05,29.99,4,0,6,0.00
2013-3-5,55,46,37,42,31,20,80,58,31,29.99,29.79,4,0,5,0.04
2013-3-6,51,42,35,41,35,23,100,80,40,29.99,29.79,8,0,12,0.47
2013-3-7,53,42,33,42,32,22,94,71,34,29.93,29.82,0,0,0,0.00
2013-3-8,60,45,31,42,28,21,92,58,29,29.96,29.76,4,0,8,0.00
2013-3-9,65,48,33,40,28,15,84,50,27,30.26,29.96,4,0,5,0.00
2013-3-10,62,45,30,31,25,16,67,47,27,30.29,30.20,3,0,4,0.00
2013-3-11,68,49,33,42,30,24,86,55,25,30.23,30.08,3,0,4,0.00
2013-3-12,71,52,37,44,33,28,84,54,23,30.14,30.05,3,0,3,0.00
2013-3-13,73,55,40,45,35,25,82,51,23,30.17,30.08,4,0,5,0.00
2013-3-14,73,56,42,39,32,28,63,45,23,30.14,30.08,4,0,7,0.00
2013-3-15,72,54,41,39,33,26,71,48,23,30.08,30.02,3,0,4,0.00
2013-3-16,69,52,38,40,30,22,80,49,25,30.05,29.96,6,0,6,0.00
2013-3-17,66,46,35,36,26,19,76,50,25,30.05,29.99,4,0,6,0.00
2013-3-18,68,56,36,31,28,23,65,34,25,30.08,29.99,4,0,4,0.00
2013-3-19,66,53,42,44,34,26,82,52,25,30.08,30.02,3,0,4,0.24
2013-3-20,53,50,48,52,48,44,100,93,82,30.08,30.02,3,0,7,1.26
2013-3-21,62,51,40,50,40,25,100,71,29,30.05,29.96,4,0,5,0.00
2013-3-22,62,44,31,36,27,18,88,56,29,30.05,29.96,6,0,11,0.00
2013-3-23,62,45,30,30,24,20,67,47,27,30.05,29.99,3,0,6,0.00
2013-3-24,68,50,34,34,27,22,71,45,25,30.05,29.93,3,0,7,0.00
2013-3-25,67,52,37,37,29,23,71,44,25,29.96,29.88,4,0,8,0.00
2013-3-26,66,52,40,39,31,23,69,46,25,29.93,29.88,4,0,7,0.00
2013-3-27,66,54,44,38,34,28,65,48,27,29.96,29.91,5,0,6,0.00
2013-3-28,62,53,44,41,36,30,71,55,34,30.08,29.96,0,0,0,0.00
2013-3-29,72,56,40,44,34,26,82,49,23,30.08,30.02,5,0,7,0.00
2013-3-30,74,62,55,48,34,26,76,35,25,30.05,29.96,3,0,6,0.04
2013-3-31,59,53,48,52,45,37,97,76,46,30.08,29.96,0,0,4,0.63
2013-4-1,58,50,43,52,44,37,94,79,52,30.11,30.02,0,0,0,0.08
2013-4-2,66,51,38,48,37,31,90,65,31,30.11,30.05,3,0,4,0.00
2013-4-3,69,54,41,48,39,33,86,62,29,30.11,29.96,4,0,5,0.00
2013-4-4,55,51,47,54,48,36,97,88,59,30.05,29.96,3,0,4,0.47
2013-4-5,62,54,47,52,44,32,99,73,34,30.11,30.05,5,0,7,0.00
2013-4-6,62,53,48,47,42,32,82,67,34,30.14,30.05,3,0,4,0.00
2013-4-7,63,55,45,45,37,31,76,54,34,30.08,29.73,6,0,13,0.08
2013-4-8,61,48,38,42,31,20,88,56,29,29.96,29.70,4,0,13,0.12
2013-4-9,70,51,35,33,27,20,78,44,21,30.11,29.96,4,0,7,0.00
2013-4-10,77,58,39,40,33,24,65,43,23,30.17,29.96,6,0,10,0.00
2013-4-11,71,58,47,49,35,25,78,46,23,29.96,29.82,5,0,7,0.00
2013-4-12,73,56,40,40,32,25,67,44,23,29.88,29.82,8,0,8,0.00
2013-4-13,72,56,43,38,31,22,63,40,23,29.88,29.79,5,0,7,0.00
2013-4-14,66,54,45,33,26,22,42,34,25,29.85,29.73,4,0,7,0.00
2013-4-15,56,49,41,31,24,18,61,38,29,29.85,29.73,4,0,5,0.00
2013-4-16,60,45,34,28,22,13,50,39,29,30.11,29.85,4,0,6,0.00
2013-4-17,65,47,30,30,22,12,65,39,27,30.20,30.11,4,0,7,0.00
2013-4-18,69,52,34,32,23,13,46,33,25,30.20,30.17,7,0,7,0.00
2013-4-19,72,56,39,39,30,22,63,39,23,30.20,30.05,5,0,6,0.00
2013-4-20,76,58,41,44,32,24,71,40,23,30.08,29.96,5,0,7,0.00
2013-4-21,78,60,49,41,31,26,44,34,23,30.02,29.96,6,0,6,0.00
2013-4-22,82,63,45,45,34,25,65,37,23,29.99,29.88,7,1,10,0.00
2013-4-23,78,62,49,41,30,18,34,30,23,29.93,29.85,5,0,6,0.00
2013-4-24,81,61,41,42,31,20,59,34,23,29.88,29.79,6,0,7,0.00
2013-4-25,72,59,49,38,29,23,59,33,23,30.05,29.85,4,0,5,0.00
2013-4-26,76,59,43,44,36,30,71,45,27,30.14,30.05,5,0,5,0.00
2013-4-27,81,63,46,49,39,31,74,45,25,30.17,30.05,4,0,5,0.00
2013-4-28,82,64,46,42,37,29,61,40,23,30.05,29.91,5,0,7,0.00
2013-4-29,81,65,50,50,39,32,76,42,25,29.91,29.79,5,0,6,0.00
2013-4-30,81,66,55,46,35,25,63,33,23,29.91,29.76,6,0,8,0.00
2013-5-1,84,67,50,42,32,22,34,27,23,30.11,29.91,5,0,7,0.00
2013-5-2,84,64,43,43,31,18,38,29,23,30.17,30.08,4,0,6,0.00
2013-5-3,84,64,47,42,34,23,55,34,23,30.11,29.85,5,0,5,0.00
2013-5-4,84,65,49,42,34,27,55,32,23,29.85,29.58,5,0,7,0.00
2013-5-5,71,59,48,38,31,21,55,34,25,29.82,29.55,4,0,5,0.00
2013-5-6,63,55,52,51,40,32,82,58,34,29.91,29.82,0,0,0,0.43
2013-5-7,59,55,51,50,47,43,78,74,63,29.99,29.91,0,0,0,0.04
2013-5-8,68,58,54,51,46,34,78,64,31,30.08,29.99,0,0,3,0.00
2013-5-9,74,62,55,55,44,36,76,55,27,30.11,30.02,4,0,4,0.00
2013-5-10,81,66,51,58,45,37,82,52,25,30.11,30.05,4,0,5,0.00
2013-5-11,84,69,54,60,46,37,78,50,23,30.11,30.05,3,0,5,0.00
2013-5-12,86,70,56,56,44,31,76,45,23,30.11,30.02,5,0,5,0.00
2013-5-13,86,68,51,47,40,30,59,38,23,30.05,29.93,5,0,5,0.00
2013-5-14,85,68,51,44,39,34,57,38,23,29.96,29.88,4,0,6,0.00
2013-5-15,76,64,53,48,39,19,67,43,21,29.96,29.91,4,0,5,0.00
2013-5-16,69,60,53,49,38,29,71,46,25,29.93,29.88,4,0,7,0.00
2013-5-17,71,58,46,54,38,26,80,51,25,30.02,29.91,6,0,6,0.00
2013-5-18,76,62,43,43,36,30,67,42,25,30.08,30.02,5,0,7,0.00
2013-5-19,80,62,45,44,36,24,65,40,25,30.08,29.96,8,0,8,0.00
2013-5-20,85,65,46,43,33,21,46,32,23,30.02,29.91,4,0,6,0.00
2013-5-21,77,63,48,41,34,22,52,34,23,29.93,29.82,5,0,9,0.00
2013-5-22,68,52,34,31,26,18,63,38,25,29.91,29.85,5,0,7,0.00
2013-5-23,69,54,38,32,25,18,44,32,25,29.96,29.85,4,0,6,0.00
2013-5-24,74,57,38,39,29,20,61,37,25,29.96,29.88,6,0,6,0.00
2013-5-25,75,59,45,39,30,23,59,34,23,29.96,29.91,6,0,8,0.00
2013-5-26,74,58,43,39,31,24,61,38,23,30.05,29.96,5,0,7,0.00
2013-5-27,64,54,46,46,37,25,76,52,31,30.05,29.93,0,0,3,0.08
2013-5-28,74,61,52,54,43,33,82,57,27,29.96,29.88,4,0,5,0.04
2013-5-29,75,62,54,58,41,29,80,48,25,29.91,29.85,5,0,6,0.04
2013-5-30,79,64,52,50,38,27,71,41,25,29.99,29.91,5,0,6,0.00
2013-5-31,90,67,46,46,38,30,65,37,21,29.99,29.91,5,0,8,0.00
2013-6-1,90,73,50,45,39,30,55,31,21,29.93,29.82,4,0,6,0.00
2013-6-2,91,80,60,46,41,32,40,25,21,29.82,29.70,4,0,5,0.00
2013-6-3,93,73,54,48,40,31,55,33,21,29.82,29.73,5,0,6,0.20
2013-6-4,86,71,55,46,41,35,57,36,23,29.91,29.79,5,0,5,0.00
2013-6-5,88,72,56,54,44,36,71,41,21,29.93,29.88,4,0,6,0.00
2013-6-6,93,75,62,56,46,38,71,39,21,29.91,29.85,4,0,5,0.00
2013-6-7,100,78,56,53,47,38,65,38,21,29.88,29.79,5,0,5,0.00
2013-6-8,102,83,66,55,47,40,50,30,21,29.82,29.73,5,0,7,0.00
2013-6-9,93,76,62,50,43,34,50,32,21,29.82,29.76,5,0,6,0.00
2013-6-10,70,64,55,47,40,33,59,42,29,29.93,29.76,4,0,6,0.00
2013-6-11,84,67,51,48,40,33,71,41,23,29.96,29.88,5,0,7,0.00
2013-6-12,84,68,51,47,38,26,65,37,23,29.93,29.88,5,0,8,0.00
2013-6-13,81,66,53,42,32,24,31,28,25,30.05,29.93,5,0,6,0.00
2013-6-14,87,67,46,45,34,20,44,30,21,30.02,29.82,6,0,7,0.00
2013-6-15,87,69,50,45,36,25,55,31,21,29.96,29.85,5,0,7,0.00
2013-6-16,88,68,52,45,33,23,34,28,21,30.02,29.93,5,0,6,0.00
2013-6-17,86,70,57,44,35,26,40,27,23,30.02,29.93,6,0,7,0.00
2013-6-18,77,64,48,41,34,26,59,35,25,29.96,29.88,7,0,7,0.00
2013-6-19,57,50,49,29,28,23,44,42,29,29.99,29.91,5,0,7,0.00
2013-6-20,81,63,44,42,32,20,50,32,25,29.99,29.91,6,0,7,0.00
2013-6-21,85,66,47,43,34,21,46,31,23,29.96,29.91,5,0,7,0.00
2013-6-22,88,69,50,45,36,26,50,30,21,29.93,29.82,5,0,8,0.00
2013-6-23,78,65,53,41,34,24,42,32,25,29.85,29.76,4,0,4,0.00
2013-6-24,64,59,56,53,48,42,88,67,48,29.91,29.76,3,0,4,0.63
2013-6-25,65,61,56,65,60,53,100,98,88,29.99,29.88,4,0,7,0.63
2013-6-26,84,71,63,79,66,55,100,87,42,30.05,29.96,0,0,3,0.00
2013-6-27,92,74,58,77,56,42,99,61,21,30.08,30.02,4,0,4,0.00
2013-6-28,95,77,60,74,53,40,84,49,21,30.08,29.93,3,0,4,0.00
2013-6-29,99,79,63,72,50,40,69,40,21,29.96,29.85,4,0,7,0.00
2013-6-30,98,79,62,70,49,40,69,39,21,29.91,29.79,0,0,0,0.08
2013-7-1,99,81,64,67,51,42,67,39,21,29.91,29.85,0,0,0,0.00
2013-7-2,100,82,70,60,51,43,52,36,21,29.91,29.88,4,0,5,0.00
2013-7-3,101,82,66,70,51,41,63,37,21,29.93,29.79,5,0,6,0.00
2013-7-4,100,82,68,59,50,37,63,36,21,29.85,29.70,5,0,7,0.00
2013-7-5,93,78,62,58,43,33,57,31,21,29.76,29.70,5,0,8,0.00
2013-7-6,90,72,56,50,39,31,52,33,21,29.79,29.73,4,0,6,0.00
2013-7-7,93,74,56,47,39,30,50,30,21,29.88,29.79,5,0,7,0.00
2013-7-8,93,77,57,48,41,31,50,30,21,29.99,29.88,5,0,8,0.00
2013-7-9,84,84,84,42,42,42,23,23,23,30.05,29.96,7,0,7,0.00
2013-7-10,95,83,64,49,42,29,29,23,21,29.99,29.88,7,0,7,0.00
2013-7-11,91,73,57,46,37,27,40,27,21,29.93,29.85,6,0,7,0.00
2013-7-12,90,71,52,45,35,24,38,28,21,29.93,29.85,6,0,6,0.00
2013-7-13,93,75,62,47,37,28,31,25,21,29.96,29.91,6,0,8,0.00
2013-7-14,93,74,55,48,37,25,36,26,21,29.96,29.88,6,0,7,0.00
2013-7-15,90,70,59,45,36,28,36,29,21,29.91,29.82,6,0,7,0.00
2013-7-16,87,78,58,45,38,26,29,24,23,29.99,29.91,6,1,7,0.00
2013-7-17,90,71,51,45,36,25,42,28,21,30.05,29.99,4,0,6,0.00
2013-7-18,93,72,53,47,36,25,42,27,21,30.05,29.93,5,0,6,0.00
2013-7-19,97,76,60,50,38,28,36,25,21,29.96,29.82,5,0,6,0.00
2013-7-20,98,78,60,52,41,29,42,27,21,29.88,29.73,4,0,6,0.00
2013-7-21,98,80,66,51,43,35,48,28,21,29.88,29.76,6,0,7,0.00
2013-7-22,92,76,61,52,42,31,50,31,21,29.96,29.88,5,0,6,0.00
2013-7-23,92,77,63,46,39,29,34,26,21,29.99,29.91,5,0,7,0.00
2013-7-24,94,79,63,48,41,33,42,27,21,29.96,29.91,5,0,8,0.00
2013-7-25,98,80,64,51,43,35,48,28,21,29.99,29.93,5,0,8,0.00
2013-7-26,97,81,68,50,43,36,40,26,21,30.05,29.96,6,0,7,0.00
2013-7-27,94,78,63,48,41,33,42,27,21,30.02,29.85,7,0,8,0.00
2013-7-28,94,77,61,48,39,29,40,27,21,29.88,29.76,6,1,8,0.00
2013-7-29,89,74,60,45,36,28,38,25,21,29.96,29.82,5,1,8,0.00
2013-7-30,90,72,52,45,35,23,36,26,21,30.05,29.96,6,0,7,0.00
2013-7-31,91,74,59,46,36,27,36,26,21,30.02,29.93,6,1,9,0.00
2013-8-1,86,68,51,44,33,23,36,28,23,29.99,29.93,7,1,8,0.04
2013-8-2,90,70,50,45,34,22,34,27,21,29.96,29.88,6,0,7,0.00
2013-8-3,90,71,51,45,34,23,38,27,21,29.96,29.88,6,0,7,0.00
2013-8-4,90,72,56,45,35,25,31,26,21,29.96,29.91,6,0,7,0.00
2013-8-5,91,71,53,45,35,24,38,27,21,29.99,29.91,6,0,7,0.00
2013-8-6,89,71,54,45,35,25,36,26,21,29.96,29.93,6,0,7,0.00
2013-8-7,83,69,57,42,35,26,38,28,23,30.02,29.96,7,1,10,0.00
2013-8-8,84,66,50,42,34,25,48,32,23,29.99,29.91,7,0,8,0.00
2013-8-9,84,67,51,42,34,23,42,29,23,29.96,29.88,7,1,9,0.00
2013-8-10,85,68,51,43,34,24,44,30,23,29.99,29.96,6,1,7,0.04
2013-8-11,87,68,51,45,35,25,44,29,21,29.99,29.91,6,1,7,0.00
2013-8-12,88,70,53,45,35,24,38,28,21,29.99,29.93,6,1,8,0.00
2013-8-13,93,72,53,47,36,24,38,27,21,29.99,29.91,7,1,7,0.00
2013-8-14,93,72,54,48,35,24,34,26,21,29.96,29.91,7,1,8,0.00
2013-8-15,94,72,55,48,35,25,31,26,21,29.96,29.91,7,1,8,0.00
2013-8-16,95,73,54,49,36,24,31,26,21,29.99,29.93,8,1,10,0.00
2013-8-17,95,75,58,49,37,27,29,25,21,29.99,29.85,7,1,8,0.00
2013-8-18,98,76,58,51,38,26,36,25,21,29.91,29.82,6,1,8,0.00
2013-8-19,92,76,65,47,39,34,31,27,21,29.93,29.85,4,0,4,0.00
2013-8-20,93,77,65,69,45,36,86,35,21,29.91,29.82,6,1,7,0.08
2013-8-21,90,75,63,52,43,34,55,35,21,29.91,29.85,6,1,8,0.00
2013-8-22,90,74,59,50,38,28,50,29,21,29.91,29.85,7,1,9,0.00
2013-8-23,89,69,53,45,34,24,38,28,21,29.91,29.79,7,1,9,0.00
2013-8-24,87,69,54,45,34,24,38,28,21,29.88,29.82,10,1,10,0.00
2013-8-25,84,67,53,47,36,26,50,33,23,29.93,29.88,7,0,10,0.00
2013-8-26,86,68,54,49,38,28,59,36,23,29.96,29.91,7,1,9,0.00
2013-8-27,89,72,54,45,38,28,52,30,21,29.93,29.82,7,1,10,0.00
2013-8-28,90,72,56,45,36,26,36,27,21,29.93,29.85,9,1,10,0.00
2013-8-29,90,70,55,45,35,25,44,28,21,30.02,29.93,7,1,8,0.00
2013-8-30,94,71,53,48,36,25,40,27,21,30.05,29.93,7,1,7,0.00
2013-8-31,94,72,55,48,36,25,34,26,21,29.99,29.88,7,1,8,0.00
2013-9-1,87,73,59,50,41,28,59,35,23,29.93,29.88,7,1,7,0.00
2013-9-2,73,66,63,59,57,37,82,74,27,29.96,29.91,0,0,3,0.39
2013-9-3,83,70,62,69,53,38,94,62,23,29.96,29.91,5,0,7,0.00
2013-9-4,85,69,57,65,48,38,84,53,23,29.99,29.93,6,0,7,0.00
2013-9-5,83,67,55,58,43,31,80,46,23,29.99,29.91,7,0,7,0.00
2013-9-6,90,68,54,46,39,30,52,37,21,29.99,29.88,6,0,8,0.00
2013-9-7,92,71,57,50,39,29,50,33,21,29.93,29.85,5,0,6,0.00
2013-9-8,94,72,55,48,39,29,55,32,21,29.91,29.79,7,0,7,0.00
2013-9-9,97,76,64,51,38,29,42,26,21,29.85,29.73,6,0,7,0.00
2013-9-10,93,73,57,47,38,29,36,29,21,29.88,29.76,5,0,6,0.00
2013-9-11,80,68,58,46,39,33,52,35,25,29.96,29.88,4,0,6,0.00
2013-9-12,86,68,54,54,42,33,71,42,23,29.96,29.88,4,0,6,0.00
2013-9-13,88,72,58,52,42,36,59,36,21,29.91,29.76,5,0,6,0.00
2013-9-14,90,71,63,45,42,33,50,37,21,29.82,29.73,0,0,0,0.00
2013-9-15,86,68,55,51,39,25,61,37,23,29.85,29.76,6,0,7,0.00
2013-9-16,85,65,49,43,33,23,44,31,23,29.88,29.79,7,0,7,0.00
2013-9-17,76,64,53,44,33,26,48,32,25,29.88,29.76,7,0,8,0.00
2013-9-18,83,62,46,45,35,24,65,39,23,29.88,29.82,5,0,7,0.00
2013-9-19,87,64,47,45,32,22,44,31,21,29.88,29.79,6,0,6,0.00
2013-9-20,83,66,49,42,33,23,44,30,23,29.82,29.79,7,0,8,0.00
2013-9-21,62,56,51,60,50,38,100,82,44,29.88,29.79,3,0,6,0.51
2013-9-22,69,55,44,65,50,43,100,86,42,29.99,29.88,5,0,5,0.00
2013-9-23,78,60,45,66,47,39,100,69,27,29.99,29.93,5,0,7,0.00
2013-9-24,74,62,50,58,44,36,86,58,27,29.96,29.82,7,1,8,0.00
2013-9-25,66,56,43,50,35,22,78,50,25,29.88,29.79,5,0,8,0.00
2013-9-26,69,52,40,41,28,20,74,43,25,29.99,29.82,5,0,8,0.00
2013-9-27,73,54,38,39,29,21,63,41,25,30.05,29.99,5,0,7,0.00
2013-9-28,78,59,45,42,32,23,61,39,23,30.08,29.99,5,0,7,0.00
2013-9-29,74,61,48,44,35,22,57,39,25,30.05,30.02,5,0,9,0.00
2013-9-30,70,62,56,49,44,37,68,52,31,30.05,29.93,4,0,8,0.00
2013-10-1,75,60,50,54,41,29,81,53,29,29.96,29.91,6,0,7,0.00
2013-10-2,74,57,46,49,36,21,79,49,26,29.96,29.91,5,0,6,0.00
2013-10-3,72,55,37,40,29,22,66,39,26,30.05,29.93,7,0,12,0.00
2013-10-4,79,62,41,43,31,18,40,31,26,30.14,30.02,7,0,7,0.00
2013-10-5,79,57,39,43,28,17,40,34,26,30.20,30.14,6,0,7,0.00
2013-10-6,81,58,44,43,29,19,44,33,26,30.14,30.02,4,0,7,0.00
2013-10-7,80,58,42,42,29,19,40,33,26,30.02,29.88,6,0,7,0.00
2013-10-8,72,55,40,40,26,18,40,34,24,29.91,29.67,4,0,5,0.00
2013-10-9,71,55,43,38,27,19,48,34,26,29.73,29.55,5,0,9,0.00
2013-10-10,68,54,44,35,27,21,57,35,26,29.99,29.73,5,0,7,0.00
2013-10-11,71,53,40,41,31,20,68,44,26,30.05,29.96,6,0,7,0.00
2013-10-12,70,58,40,39,33,20,64,41,26,29.99,29.88,7,0,7,0.00
2013-10-13,70,70,70,38,38,38,31,31,31,30.05,29.88,6,0,7,0.00
2013-10-14,70,67,43,38,36,19,44,32,31,30.11,30.02,5,0,6,0.00
2013-10-15,78,54,37,43,28,19,59,38,26,30.05,29.96,5,0,9,0.00
2013-10-16,76,55,39,41,27,16,40,34,26,30.11,29.99,6,0,6,0.00
2013-10-17,76,54,38,41,27,16,46,35,26,30.08,29.96,5,0,6,0.00
2013-10-18,77,56,43,42,28,19,40,34,26,30.05,29.99,4,0,6,0.00
2013-10-19,80,57,41,43,28,18,46,34,26,30.08,30.02,7,0,7,0.00
2013-10-20,79,57,42,42,28,19,44,34,26,30.05,29.91,5,0,6,0.00
2013-10-21,79,56,40,43,29,18,46,35,26,29.99,29.93,5,0,6,0.00
2013-10-22,82,58,42,44,28,19,40,33,24,30.02,29.93,4,0,5,0.00
2013-10-23,82,62,40,44,32,18,40,32,24,29.96,29.88,6,0,8,0.00
2013-10-24,78,57,41,43,29,18,40,34,26,30.05,29.93,6,0,7,0.00
2013-10-25,78,55,39,43,27,16,40,35,26,30.14,30.05,4,0,6,0.00
2013-10-26,78,55,39,42,27,16,40,34,26,30.14,30.02,5,0,6,0.00
2013-10-27,74,54,42,41,27,19,86,37,26,30.02,29.55,7,0,10,0.16
2013-10-28,51,45,42,48,42,38,99,89,79,29.82,29.58,0,0,0,0.12
2013-10-29,51,46,38,51,45,36,100,96,90,29.99,29.82,0,0,0,0.00
2013-10-30,60,44,33,52,34,26,100,72,31,30.08,29.99,4,0,5,0.00
2013-10-31,67,48,34,49,33,26,90,63,26,30.14,30.05,4,0,5,0.00
2013-11-1,72,51,38,46,34,25,86,58,26,30.17,30.02,5,0,5,0.00
2013-11-2,68,50,39,40,30,24,68,49,26,30.05,29.88,5,0,7,0.00
2013-11-3,62,46,36,46,28,16,81,52,29,29.96,29.85,4,0,4,0.00
2013-11-4,65,46,33,32,24,14,68,45,29,30.05,29.85,6,0,10,0.00
2013-11-5,66,46,33,32,21,13,46,37,26,30.20,30.05,4,0,6,0.00
2013-11-6,67,49,36,34,26,17,64,42,26,30.23,30.17,5,0,7,0.00
2013-11-7,72,53,42,39,27,19,55,37,26,30.17,30.05,7,0,7,0.00
2013-11-8,71,50,37,39,24,16,42,35,26,30.08,29.93,5,0,7,0.00
2013-11-9,71,50,38,39,27,18,64,42,26,30.02,29.96,6,0,7,0.00
2013-11-10,72,50,37,39,26,18,64,41,26,30.08,30.02,5,0,7,0.00
2013-11-11,72,51,38,39,24,16,42,35,26,30.17,30.05,4,0,5,0.00
2013-11-12,70,55,42,38,27,19,40,33,26,30.26,30.14,5,0,6,0.00
2013-11-13,74,52,39,40,26,19,48,37,26,30.23,30.05,5,0,6,0.00
2013-11-14,69,50,39,38,25,19,46,38,26,30.08,29.82,5,0,7,0.00
2013-11-15,64,47,37,36,24,20,66,42,29,29.82,29.67,8,0,8,0.00
2013-11-16,60,46,35,30,22,14,42,38,31,29.88,29.73,5,0,5,0.00
2013-11-17,62,44,32,33,22,14,66,44,29,30.05,29.88,4,0,6,0.00
2013-11-18,63,46,34,38,26,18,68,47,29,30.11,30.02,7,0,7,0.00
2013-11-19,54,49,45,47,41,24,88,76,42,30.05,29.91,0,0,3,0.55
2013-11-20,53,50,46,53,49,46,100,98,88,29.91,29.82,0,0,4,0.98
2013-11-21,54,46,40,47,31,21,100,63,33,30.02,29.85,0,0,6,0.00
2013-11-22,65,50,36,32,24,15,42,35,29,30.02,29.96,0,0,10,0.00
2013-11-23,65,45,32,32,21,13,53,39,29,30.08,29.93,0,0,3,0.00
2013-11-24,58,40,29,30,22,14,70,51,31,30.20,30.08,0,0,0,0.12
2013-11-25,60,42,30,36,26,20,81,57,31,30.26,30.20,0,0,0,0.00
2013-11-26,58,43,34,40,30,22,84,63,31,30.23,30.02,0,0,0,0.00
2013-11-27,63,46,34,38,28,21,79,53,29,30.02,29.88,0,0,0,0.00
2013-11-28,65,46,38,34,27,19,64,49,29,30.05,29.88,0,0,0,0.00
2013-11-29,64,45,34,39,27,19,75,52,29,30.20,30.05,0,0,0,0.00
2013-11-30,62,45,35,36,28,21,75,53,29,30.23,30.14,0,0,0,0.00
2013-12-1,64,45,33,40,28,22,81,56,29,30.29,30.20,0,0,0,0.00
2013-12-2,59,46,35,42,30,22,81,55,31,30.20,29.88,0,0,0,0.00
2013-12-3,52,42,27,44,29,16,92,62,37,29.88,29.76,0,0,0,0.24
2013-12-4,44,30,22,28,17,11,81,61,37,29.99,29.85,0,0,0,0.00
2013-12-5,42,28,18,20,13,7,73,55,40,30.05,29.99,0,0,0,0.00
2013-12-6,42,30,20,31,17,7,92,61,40,30.08,29.79,0,0,3,0.00
2013-12-7,34,30,20,32,26,16,99,86,66,30.11,29.79,0,0,0,0.00
2013-12-8,37,24,14,24,15,8,84,69,42,30.20,30.11,0,0,0,0.08
2013-12-9,41,28,18,28,17,11,79,66,40,30.35,30.20,0,0,0,0.04
2013-12-10,47,32,21,34,20,14,86,65,37,30.35,30.11,0,0,0,0.12
2013-12-11,52,34,25,40,24,17,88,68,35,30.20,30.14,0,0,0,0.00
2013-12-12,57,37,27,33,23,14,77,60,31,30.20,30.11,0,0,0,0.00
2013-12-13,56,37,27,31,22,15,73,57,33,30.26,30.17,0,0,0,0.00
2013-12-14,58,37,27,35,23,17,77,60,31,30.35,30.26,0,0,0,0.00
2013-12-15,62,40,29,37,24,16,77,55,29,30.35,30.20,0,0,0,0.00
2013-12-16,67,44,34,38,26,19,70,52,26,30.23,30.11,0,0,0,0.00
2013-12-17,67,46,35,34,27,21,66,50,26,30.17,30.05,0,0,0,0.00
2013-12-18,58,45,37,32,27,23,64,51,31,30.05,29.70,0,0,0,0.00
2013-12-19,54,43,35,34,25,14,73,52,33,29.85,29.64,0,0,4,0.00
2013-12-20,59,40,28,28,18,10,48,40,31,29.93,29.85,0,0,0,0.00
2013-12-21,59,41,31,36,24,14,70,52,31,30.05,29.93,0,0,0,0.00
2013-12-22,63,44,33,37,26,20,70,50,29,30.26,30.05,0,0,0,0.00
2013-12-23,62,43,32,40,25,19,75,53,29,30.35,30.26,0,0,0,0.00
2013-12-24,66,44,33,40,25,13,73,51,26,30.29,30.17,0,0,0,0.00
2013-12-25,65,41,29,31,19,13,57,42,29,30.26,30.20,0,0,0,0.00
2013-12-26,65,50,30,31,24,12,55,38,29,30.26,30.17,0,0,0,0.00
2013-12-27,64,64,64,31,31,31,29,29,29,30.23,30.11,0,0,0,0.00
2013-12-28,64,64,64,31,31,31,29,29,29,30.11,30.02,0,0,4,0.00
2013-12-29,64,55,33,31,26,14,48,34,29,30.17,30.08,0,0,0,0.00
2013-12-30,62,42,30,31,20,14,55,42,29,30.23,30.17,0,0,0,0.00
2013-12-31,63,43,34,31,19,14,44,39,29,30.23,30.11,0,0,0,0.00
2014-1-1,62,42,32,31,21,13,59,42,29,30.17,30.08,0,0,0,0.00
2014-1-2,66,46,33,36,26,18,68,47,26,30.17,30.05,0,0,0,0.00